owner,sensor,date,latitude,longitude,vertical_datum,sea_water_practical_salinity,qcFlag 
LUMCON,ioos:station:LUMCON:wisl1:1,2019-12-01T00:00:00Z,29.1144,-90.1840,2.236,22.58,11111222 
LUMCON,ioos:station:LUMCON:wisl1:1,2019-12-01T00:15:00Z,29.1144,-90.1840,2.25,22.47,11111222 
LUMCON,ioos:station:LUMCON:wisl1:1,2019-12-01T00:30:00Z,29.1144,-90.1840,2.261,22.64,11111222 
LUMCON,ioos:station:LUMCON:wisl1:1,2019-12-01T00:45:00Z,29.1144,-90.1840,2.27,22.9,11111222 
LUMCON,ioos:station:LUMCON:wisl1:1,2019-12-01T01:00:00Z,29.1144,-90.1840,2.295,23.07,11111222 
LUMCON,ioos:station:LUMCON:wisl1:1,2019-12-01T01:15:00Z,29.1144,-90.1840,2.304,23.43,11111222 
LUMCON,ioos:station:LUMCON:wisl1:1,2019-12-01T01:30:00Z,29.1144,-90.1840,2.317,23.8,11111222 
LUMCON,ioos:station:LUMCON:wisl1:1,2019-12-01T01:45:00Z,29.1144,-90.1840,2.329,23.92,11111222 
LUMCON,ioos:station:LUMCON:wisl1:1,2019-12-01T02:00:00Z,29.1144,-90.1840,2.343,24.01,11111222 
LUMCON,ioos:station:LUMCON:wisl1:1,2019-12-01T02:15:00Z,29.1144,-90.1840,2.357,24.16,11111222 
LUMCON,ioos:station:LUMCON:wisl1:1,2019-12-01T02:30:00Z,29.1144,-90.1840,2.365,24.21,11111222 
LUMCON,ioos:station:LUMCON:wisl1:1,2019-12-01T02:45:00Z,29.1144,-90.1840,2.376,24.27,11111222 
LUMCON,ioos:station:LUMCON:wisl1:1,2019-12-01T03:00:00Z,29.1144,-90.1840,2.383,24.37,11111222 
LUMCON,ioos:station:LUMCON:wisl1:1,2019-12-01T03:15:00Z,29.1144,-90.1840,2.4,24.39,11111222 
LUMCON,ioos:station:LUMCON:wisl1:1,2019-12-01T03:30:00Z,29.1144,-90.1840,2.413,24.35,11111222 
LUMCON,ioos:station:LUMCON:wisl1:1,2019-12-01T03:45:00Z,29.1144,-90.1840,2.424,24.38,11111222 
LUMCON,ioos:station:LUMCON:wisl1:1,2019-12-01T04:00:00Z,29.1144,-90.1840,2.42,24.45,11111222 
LUMCON,ioos:station:LUMCON:wisl1:1,2019-12-01T04:15:00Z,29.1144,-90.1840,2.427,24.5,11111222 
LUMCON,ioos:station:LUMCON:wisl1:1,2019-12-01T04:30:00Z,29.1144,-90.1840,2.426,24.63,11111222 
LUMCON,ioos:station:LUMCON:wisl1:1,2019-12-01T04:45:00Z,29.1144,-90.1840,2.438,24.48,11111222 
LUMCON,ioos:station:LUMCON:wisl1:1,2019-12-01T05:00:00Z,29.1144,-90.1840,2.44,24.36,11111222 
LUMCON,ioos:station:LUMCON:wisl1:1,2019-12-01T05:15:00Z,29.1144,-90.1840,2.438,24.52,11111222 
LUMCON,ioos:station:LUMCON:wisl1:1,2019-12-01T05:30:00Z,29.1144,-90.1840,2.444,24.6,11111222 
LUMCON,ioos:station:LUMCON:wisl1:1,2019-12-01T05:45:00Z,29.1144,-90.1840,2.447,24.5,11111222 
LUMCON,ioos:station:LUMCON:wisl1:1,2019-12-01T06:00:00Z,29.1144,-90.1840,2.447,24.56,11111222 
LUMCON,ioos:station:LUMCON:wisl1:1,2019-12-01T06:15:00Z,29.1144,-90.1840,2.444,24.53,11111222 
LUMCON,ioos:station:LUMCON:wisl1:1,2019-12-01T06:30:00Z,29.1144,-90.1840,2.442,24.75,11111222 
LUMCON,ioos:station:LUMCON:wisl1:1,2019-12-01T06:45:00Z,29.1144,-90.1840,2.447,24.77,11111222 
LUMCON,ioos:station:LUMCON:wisl1:1,2019-12-01T07:00:00Z,29.1144,-90.1840,2.44,24.75,11111222 
LUMCON,ioos:station:LUMCON:wisl1:1,2019-12-01T07:15:00Z,29.1144,-90.1840,2.434,24.57,11111222 
LUMCON,ioos:station:LUMCON:wisl1:1,2019-12-01T07:30:00Z,29.1144,-90.1840,2.434,24.54,11111222 
LUMCON,ioos:station:LUMCON:wisl1:1,2019-12-01T07:45:00Z,29.1144,-90.1840,2.427,24.64,11111222 
LUMCON,ioos:station:LUMCON:wisl1:1,2019-12-01T08:00:00Z,29.1144,-90.1840,2.425,24.61,11111222 
LUMCON,ioos:station:LUMCON:wisl1:1,2019-12-01T08:15:00Z,29.1144,-90.1840,2.427,24.66,11111222 
LUMCON,ioos:station:LUMCON:wisl1:1,2019-12-01T08:30:00Z,29.1144,-90.1840,2.411,24.44,11111222 
LUMCON,ioos:station:LUMCON:wisl1:1,2019-12-01T08:45:00Z,29.1144,-90.1840,2.41,24.52,11111222 
LUMCON,ioos:station:LUMCON:wisl1:1,2019-12-01T09:00:00Z,29.1144,-90.1840,2.397,24.53,11111222 
LUMCON,ioos:station:LUMCON:wisl1:1,2019-12-01T09:15:00Z,29.1144,-90.1840,2.386,24.78,11111222 
LUMCON,ioos:station:LUMCON:wisl1:1,2019-12-01T09:30:00Z,29.1144,-90.1840,2.371,24.75,11111222 
LUMCON,ioos:station:LUMCON:wisl1:1,2019-12-01T09:45:00Z,29.1144,-90.1840,2.361,24.66,11111222 
LUMCON,ioos:station:LUMCON:wisl1:1,2019-12-01T10:00:00Z,29.1144,-90.1840,2.355,24.66,11111222 
LUMCON,ioos:station:LUMCON:wisl1:1,2019-12-01T10:15:00Z,29.1144,-90.1840,2.345,24.62,11111222 
LUMCON,ioos:station:LUMCON:wisl1:1,2019-12-01T10:30:00Z,29.1144,-90.1840,2.33,24.6,11111222 
LUMCON,ioos:station:LUMCON:wisl1:1,2019-12-01T10:45:00Z,29.1144,-90.1840,2.318,24.58,11111222 
LUMCON,ioos:station:LUMCON:wisl1:1,2019-12-01T11:00:00Z,29.1144,-90.1840,2.305,24.56,11111222 
LUMCON,ioos:station:LUMCON:wisl1:1,2019-12-01T11:15:00Z,29.1144,-90.1840,2.3,24.54,11111222 
LUMCON,ioos:station:LUMCON:wisl1:1,2019-12-01T11:30:00Z,29.1144,-90.1840,2.292,24.45,11111222 
LUMCON,ioos:station:LUMCON:wisl1:1,2019-12-01T11:45:00Z,29.1144,-90.1840,2.286,24.37,11111222 
LUMCON,ioos:station:LUMCON:wisl1:1,2019-12-01T12:00:00Z,29.1144,-90.1840,2.271,24.34,11111222 
LUMCON,ioos:station:LUMCON:wisl1:1,2019-12-01T12:15:00Z,29.1144,-90.1840,2.262,24.29,11111222 
LUMCON,ioos:station:LUMCON:wisl1:1,2019-12-01T12:30:00Z,29.1144,-90.1840,2.251,24.23,11111222 
LUMCON,ioos:station:LUMCON:wisl1:1,2019-12-01T12:45:00Z,29.1144,-90.1840,2.23,24.18,11111222 
LUMCON,ioos:station:LUMCON:wisl1:1,2019-12-01T13:00:00Z,29.1144,-90.1840,2.216,24.14,11111222 
LUMCON,ioos:station:LUMCON:wisl1:1,2019-12-01T13:15:00Z,29.1144,-90.1840,2.205,24.15,11111222 
LUMCON,ioos:station:LUMCON:wisl1:1,2019-12-01T13:30:00Z,29.1144,-90.1840,2.194,24.05,11111222 
LUMCON,ioos:station:LUMCON:wisl1:1,2019-12-01T13:45:00Z,29.1144,-90.1840,2.159,24.03,11111222 
LUMCON,ioos:station:LUMCON:wisl1:1,2019-12-01T14:00:00Z,29.1144,-90.1840,2.151,23.95,11111222 
LUMCON,ioos:station:LUMCON:wisl1:1,2019-12-01T14:15:00Z,29.1144,-90.1840,2.115,23.89,11111222 
LUMCON,ioos:station:LUMCON:wisl1:1,2019-12-01T14:30:00Z,29.1144,-90.1840,2.1,23.86,11111222 
LUMCON,ioos:station:LUMCON:wisl1:1,2019-12-01T14:45:00Z,29.1144,-90.1840,2.077,23.82,11111222 
LUMCON,ioos:station:LUMCON:wisl1:1,2019-12-01T15:00:00Z,29.1144,-90.1840,2.067,23.78,11111222 
LUMCON,ioos:station:LUMCON:wisl1:1,2019-12-01T15:15:00Z,29.1144,-90.1840,2.083,23.76,11111222 
LUMCON,ioos:station:LUMCON:wisl1:1,2019-12-01T15:30:00Z,29.1144,-90.1840,2.082,23.74,11111222 
LUMCON,ioos:station:LUMCON:wisl1:1,2019-12-01T15:45:00Z,29.1144,-90.1840,2.089,23.71,11111222 
LUMCON,ioos:station:LUMCON:wisl1:1,2019-12-01T16:00:00Z,29.1144,-90.1840,2.097,23.69,11111222 
LUMCON,ioos:station:LUMCON:wisl1:1,2019-12-01T16:15:00Z,29.1144,-90.1840,2.103,23.67,11111222 
LUMCON,ioos:station:LUMCON:wisl1:1,2019-12-01T16:30:00Z,29.1144,-90.1840,2.095,23.65,11111222 
LUMCON,ioos:station:LUMCON:wisl1:1,2019-12-01T16:45:00Z,29.1144,-90.1840,2.084,23.65,11111222 
LUMCON,ioos:station:LUMCON:wisl1:1,2019-12-01T17:00:00Z,29.1144,-90.1840,2.074,23.63,11111222 
LUMCON,ioos:station:LUMCON:wisl1:1,2019-12-01T17:15:00Z,29.1144,-90.1840,2.061,23.61,11111222 
LUMCON,ioos:station:LUMCON:wisl1:1,2019-12-01T17:30:00Z,29.1144,-90.1840,2.054,23.61,11111222 
LUMCON,ioos:station:LUMCON:wisl1:1,2019-12-01T17:45:00Z,29.1144,-90.1840,2.047,23.6,11111222 
LUMCON,ioos:station:LUMCON:wisl1:1,2019-12-01T18:00:00Z,29.1144,-90.1840,2.044,23.59,11111222 
LUMCON,ioos:station:LUMCON:wisl1:1,2019-12-01T18:15:00Z,29.1144,-90.1840,2.03,23.57,11111222 
LUMCON,ioos:station:LUMCON:wisl1:1,2019-12-01T18:30:00Z,29.1144,-90.1840,2.018,23.56,11111222 
LUMCON,ioos:station:LUMCON:wisl1:1,2019-12-01T18:45:00Z,29.1144,-90.1840,2.023,23.58,11111222 
LUMCON,ioos:station:LUMCON:wisl1:1,2019-12-01T19:00:00Z,29.1144,-90.1840,2.003,23.57,11111222 
LUMCON,ioos:station:LUMCON:wisl1:1,2019-12-01T19:15:00Z,29.1144,-90.1840,2.013,23.55,11111222 
LUMCON,ioos:station:LUMCON:wisl1:1,2019-12-01T19:30:00Z,29.1144,-90.1840,2.011,23.55,11111222 
LUMCON,ioos:station:LUMCON:wisl1:1,2019-12-01T19:45:00Z,29.1144,-90.1840,2.03,23.53,11111222 
LUMCON,ioos:station:LUMCON:wisl1:1,2019-12-01T20:00:00Z,29.1144,-90.1840,2.047,23.49,11111222 
LUMCON,ioos:station:LUMCON:wisl1:1,2019-12-01T20:15:00Z,29.1144,-90.1840,2.058,23.47,11111222 
LUMCON,ioos:station:LUMCON:wisl1:1,2019-12-01T20:30:00Z,29.1144,-90.1840,2.062,23.51,11111222 
LUMCON,ioos:station:LUMCON:wisl1:1,2019-12-01T20:45:00Z,29.1144,-90.1840,2.078,23.52,11111222 
LUMCON,ioos:station:LUMCON:wisl1:1,2019-12-01T21:00:00Z,29.1144,-90.1840,2.081,23.53,11111222 
LUMCON,ioos:station:LUMCON:wisl1:1,2019-12-01T21:15:00Z,29.1144,-90.1840,2.08,23.5,11111222 
LUMCON,ioos:station:LUMCON:wisl1:1,2019-12-01T21:30:00Z,29.1144,-90.1840,2.089,23.54,11111222 
LUMCON,ioos:station:LUMCON:wisl1:1,2019-12-01T21:45:00Z,29.1144,-90.1840,2.098,23.56,11111222 
LUMCON,ioos:station:LUMCON:wisl1:1,2019-12-01T22:00:00Z,29.1144,-90.1840,2.107,23.54,11111222 
LUMCON,ioos:station:LUMCON:wisl1:1,2019-12-01T22:15:00Z,29.1144,-90.1840,2.119,23.55,11111222 
LUMCON,ioos:station:LUMCON:wisl1:1,2019-12-01T22:30:00Z,29.1144,-90.1840,2.122,23.55,11111222 
LUMCON,ioos:station:LUMCON:wisl1:1,2019-12-01T22:45:00Z,29.1144,-90.1840,2.134,23.55,11111222 
LUMCON,ioos:station:LUMCON:wisl1:1,2019-12-01T23:00:00Z,29.1144,-90.1840,2.155,23.57,11111222 
LUMCON,ioos:station:LUMCON:wisl1:1,2019-12-01T23:15:00Z,29.1144,-90.1840,2.162,23.57,11111222 
LUMCON,ioos:station:LUMCON:wisl1:1,2019-12-01T23:30:00Z,29.1144,-90.1840,2.177,23.58,11111222 
LUMCON,ioos:station:LUMCON:wisl1:1,2019-12-01T23:45:00Z,29.1144,-90.1840,2.19,23.57,11111222 
LUMCON,ioos:station:LUMCON:wisl1:1,2019-12-02T00:00:00Z,29.1144,-90.1840,2.197,23.57,11111222 
LUMCON,ioos:station:LUMCON:wisl1:1,2019-12-02T00:15:00Z,29.1144,-90.1840,2.216,23.56,11111222 
LUMCON,ioos:station:LUMCON:wisl1:1,2019-12-02T00:30:00Z,29.1144,-90.1840,2.234,23.56,11111222 
LUMCON,ioos:station:LUMCON:wisl1:1,2019-12-02T00:45:00Z,29.1144,-90.1840,2.244,23.57,11111222 
LUMCON,ioos:station:LUMCON:wisl1:1,2019-12-02T01:00:00Z,29.1144,-90.1840,2.249,23.61,11111222 
LUMCON,ioos:station:LUMCON:wisl1:1,2019-12-02T01:15:00Z,29.1144,-90.1840,2.256,23.63,11111222 
LUMCON,ioos:station:LUMCON:wisl1:1,2019-12-02T01:30:00Z,29.1144,-90.1840,2.264,23.61,11111222 
LUMCON,ioos:station:LUMCON:wisl1:1,2019-12-02T01:45:00Z,29.1144,-90.1840,2.282,23.73,11111222 
LUMCON,ioos:station:LUMCON:wisl1:1,2019-12-02T02:00:00Z,29.1144,-90.1840,2.283,23.96,11111222 
LUMCON,ioos:station:LUMCON:wisl1:1,2019-12-02T02:15:00Z,29.1144,-90.1840,2.291,24.24,11111222 
LUMCON,ioos:station:LUMCON:wisl1:1,2019-12-02T02:30:00Z,29.1144,-90.1840,2.294,24.3,11111222 
LUMCON,ioos:station:LUMCON:wisl1:1,2019-12-02T02:45:00Z,29.1144,-90.1840,2.316,24.48,11111222 
LUMCON,ioos:station:LUMCON:wisl1:1,2019-12-02T03:00:00Z,29.1144,-90.1840,2.314,24.41,11111222 
LUMCON,ioos:station:LUMCON:wisl1:1,2019-12-02T03:15:00Z,29.1144,-90.1840,2.321,24.55,11111222 
LUMCON,ioos:station:LUMCON:wisl1:1,2019-12-02T03:30:00Z,29.1144,-90.1840,2.317,24.69,11111222 
LUMCON,ioos:station:LUMCON:wisl1:1,2019-12-02T03:45:00Z,29.1144,-90.1840,2.328,24.76,11111222 
LUMCON,ioos:station:LUMCON:wisl1:1,2019-12-02T04:00:00Z,29.1144,-90.1840,2.331,24.83,11111222 
LUMCON,ioos:station:LUMCON:wisl1:1,2019-12-02T04:15:00Z,29.1144,-90.1840,2.324,24.86,11111222 
LUMCON,ioos:station:LUMCON:wisl1:1,2019-12-02T04:30:00Z,29.1144,-90.1840,2.332,24.93,11111222 
LUMCON,ioos:station:LUMCON:wisl1:1,2019-12-02T04:45:00Z,29.1144,-90.1840,2.324,24.91,11111222 
LUMCON,ioos:station:LUMCON:wisl1:1,2019-12-02T05:00:00Z,29.1144,-90.1840,2.317,24.88,11111222 
LUMCON,ioos:station:LUMCON:wisl1:1,2019-12-02T05:15:00Z,29.1144,-90.1840,2.317,24.88,11111222 
LUMCON,ioos:station:LUMCON:wisl1:1,2019-12-02T05:30:00Z,29.1144,-90.1840,2.312,24.87,11111222 
LUMCON,ioos:station:LUMCON:wisl1:1,2019-12-02T05:45:00Z,29.1144,-90.1840,2.305,24.88,11111222 
LUMCON,ioos:station:LUMCON:wisl1:1,2019-12-02T06:00:00Z,29.1144,-90.1840,2.296,24.89,11111222 
LUMCON,ioos:station:LUMCON:wisl1:1,2019-12-02T06:15:00Z,29.1144,-90.1840,2.291,24.89,11111222 
LUMCON,ioos:station:LUMCON:wisl1:1,2019-12-02T06:30:00Z,29.1144,-90.1840,2.287,24.87,11111222 
LUMCON,ioos:station:LUMCON:wisl1:1,2019-12-02T06:45:00Z,29.1144,-90.1840,2.292,24.73,11111222 
LUMCON,ioos:station:LUMCON:wisl1:1,2019-12-02T07:00:00Z,29.1144,-90.1840,2.297,24.46,11111222 
LUMCON,ioos:station:LUMCON:wisl1:1,2019-12-02T07:15:00Z,29.1144,-90.1840,2.297,24.42,11111222 
LUMCON,ioos:station:LUMCON:wisl1:1,2019-12-02T07:30:00Z,29.1144,-90.1840,2.309,24.48,11111222 
LUMCON,ioos:station:LUMCON:wisl1:1,2019-12-02T07:45:00Z,29.1144,-90.1840,2.302,24.19,11111222 
LUMCON,ioos:station:LUMCON:wisl1:1,2019-12-02T08:00:00Z,29.1144,-90.1840,2.316,24.05,11111222 
LUMCON,ioos:station:LUMCON:wisl1:1,2019-12-02T08:15:00Z,29.1144,-90.1840,2.317,23.99,11111222 
LUMCON,ioos:station:LUMCON:wisl1:1,2019-12-02T08:30:00Z,29.1144,-90.1840,2.324,23.88,11111222 
LUMCON,ioos:station:LUMCON:wisl1:1,2019-12-02T08:45:00Z,29.1144,-90.1840,2.339,23.86,11111222 
LUMCON,ioos:station:LUMCON:wisl1:1,2019-12-02T09:00:00Z,29.1144,-90.1840,2.343,23.88,11111222 
LUMCON,ioos:station:LUMCON:wisl1:1,2019-12-02T09:15:00Z,29.1144,-90.1840,2.327,23.82,11111222 
LUMCON,ioos:station:LUMCON:wisl1:1,2019-12-02T09:30:00Z,29.1144,-90.1840,2.332,23.83,11111222 
LUMCON,ioos:station:LUMCON:wisl1:1,2019-12-02T09:45:00Z,29.1144,-90.1840,2.315,23.82,11111222 
LUMCON,ioos:station:LUMCON:wisl1:1,2019-12-02T10:00:00Z,29.1144,-90.1840,2.313,23.88,11111222 
LUMCON,ioos:station:LUMCON:wisl1:1,2019-12-02T10:15:00Z,29.1144,-90.1840,2.311,23.99,11111222 
LUMCON,ioos:station:LUMCON:wisl1:1,2019-12-02T10:30:00Z,29.1144,-90.1840,2.314,24.05,11111222 
LUMCON,ioos:station:LUMCON:wisl1:1,2019-12-02T10:45:00Z,29.1144,-90.1840,2.309,23.98,11111222 
LUMCON,ioos:station:LUMCON:wisl1:1,2019-12-02T11:00:00Z,29.1144,-90.1840,2.316,23.93,11111222 
LUMCON,ioos:station:LUMCON:wisl1:1,2019-12-02T11:15:00Z,29.1144,-90.1840,2.318,23.91,11111222 
LUMCON,ioos:station:LUMCON:wisl1:1,2019-12-02T11:30:00Z,29.1144,-90.1840,2.313,23.93,11111222 
LUMCON,ioos:station:LUMCON:wisl1:1,2019-12-02T11:45:00Z,29.1144,-90.1840,2.311,23.98,11111222 
LUMCON,ioos:station:LUMCON:wisl1:1,2019-12-02T12:00:00Z,29.1144,-90.1840,2.304,23.91,11111222 
LUMCON,ioos:station:LUMCON:wisl1:1,2019-12-02T12:15:00Z,29.1144,-90.1840,2.301,23.83,11111222 
LUMCON,ioos:station:LUMCON:wisl1:1,2019-12-02T12:30:00Z,29.1144,-90.1840,2.298,23.9,11111222 
LUMCON,ioos:station:LUMCON:wisl1:1,2019-12-02T12:45:00Z,29.1144,-90.1840,2.287,23.88,11111222 
LUMCON,ioos:station:LUMCON:wisl1:1,2019-12-02T13:00:00Z,29.1144,-90.1840,2.285,23.88,11111222 
LUMCON,ioos:station:LUMCON:wisl1:1,2019-12-02T13:15:00Z,29.1144,-90.1840,2.282,23.87,11111222 
LUMCON,ioos:station:LUMCON:wisl1:1,2019-12-02T13:30:00Z,29.1144,-90.1840,2.28,23.86,11111222 
LUMCON,ioos:station:LUMCON:wisl1:1,2019-12-02T13:45:00Z,29.1144,-90.1840,2.28,23.89,11111222 
LUMCON,ioos:station:LUMCON:wisl1:1,2019-12-02T14:00:00Z,29.1144,-90.1840,2.28,23.87,11111222 
LUMCON,ioos:station:LUMCON:wisl1:1,2019-12-02T14:15:00Z,29.1144,-90.1840,2.278,23.86,11111222 
LUMCON,ioos:station:LUMCON:wisl1:1,2019-12-02T14:30:00Z,29.1144,-90.1840,2.268,23.87,11111222 
LUMCON,ioos:station:LUMCON:wisl1:1,2019-12-02T14:45:00Z,29.1144,-90.1840,2.257,23.84,11111222 
LUMCON,ioos:station:LUMCON:wisl1:1,2019-12-02T15:00:00Z,29.1144,-90.1840,2.25,23.85,11111222 
LUMCON,ioos:station:LUMCON:wisl1:1,2019-12-02T15:15:00Z,29.1144,-90.1840,2.245,23.83,11111222 
LUMCON,ioos:station:LUMCON:wisl1:1,2019-12-02T15:30:00Z,29.1144,-90.1840,2.232,23.88,11111222 
LUMCON,ioos:station:LUMCON:wisl1:1,2019-12-02T15:45:00Z,29.1144,-90.1840,2.218,23.85,11111222 
LUMCON,ioos:station:LUMCON:wisl1:1,2019-12-02T16:00:00Z,29.1144,-90.1840,2.221,23.82,11111222 
LUMCON,ioos:station:LUMCON:wisl1:1,2019-12-02T16:15:00Z,29.1144,-90.1840,2.216,23.83,11111222 
LUMCON,ioos:station:LUMCON:wisl1:1,2019-12-02T16:30:00Z,29.1144,-90.1840,2.206,23.83,11111222 
LUMCON,ioos:station:LUMCON:wisl1:1,2019-12-02T16:45:00Z,29.1144,-90.1840,2.202,23.84,11111222 
LUMCON,ioos:station:LUMCON:wisl1:1,2019-12-02T17:00:00Z,29.1144,-90.1840,2.197,23.85,11111222 
LUMCON,ioos:station:LUMCON:wisl1:1,2019-12-02T17:15:00Z,29.1144,-90.1840,2.198,23.84,11111222 
LUMCON,ioos:station:LUMCON:wisl1:1,2019-12-02T17:30:00Z,29.1144,-90.1840,2.195,23.81,11111222 
LUMCON,ioos:station:LUMCON:wisl1:1,2019-12-02T17:45:00Z,29.1144,-90.1840,2.199,23.82,11111222 
LUMCON,ioos:station:LUMCON:wisl1:1,2019-12-02T18:00:00Z,29.1144,-90.1840,2.205,23.81,11111222 
LUMCON,ioos:station:LUMCON:wisl1:1,2019-12-02T18:15:00Z,29.1144,-90.1840,2.208,23.81,11111222 
LUMCON,ioos:station:LUMCON:wisl1:1,2019-12-02T18:30:00Z,29.1144,-90.1840,2.227,23.78,11111222 
LUMCON,ioos:station:LUMCON:wisl1:1,2019-12-02T18:45:00Z,29.1144,-90.1840,2.229,23.77,11111222 
LUMCON,ioos:station:LUMCON:wisl1:1,2019-12-02T19:00:00Z,29.1144,-90.1840,2.232,23.76,11111222 
LUMCON,ioos:station:LUMCON:wisl1:1,2019-12-02T19:15:00Z,29.1144,-90.1840,2.232,23.76,11111222 
LUMCON,ioos:station:LUMCON:wisl1:1,2019-12-02T19:30:00Z,29.1144,-90.1840,2.253,23.77,11111222 
LUMCON,ioos:station:LUMCON:wisl1:1,2019-12-02T19:45:00Z,29.1144,-90.1840,2.263,23.77,11111222 
LUMCON,ioos:station:LUMCON:wisl1:1,2019-12-02T20:00:00Z,29.1144,-90.1840,2.27,23.77,11111222 
LUMCON,ioos:station:LUMCON:wisl1:1,2019-12-02T20:15:00Z,29.1144,-90.1840,2.277,23.77,11111222 
LUMCON,ioos:station:LUMCON:wisl1:1,2019-12-02T20:30:00Z,29.1144,-90.1840,2.272,23.77,11111222 
LUMCON,ioos:station:LUMCON:wisl1:1,2019-12-02T20:45:00Z,29.1144,-90.1840,2.281,23.77,11111222 
LUMCON,ioos:station:LUMCON:wisl1:1,2019-12-02T21:00:00Z,29.1144,-90.1840,2.296,23.78,11111222 
LUMCON,ioos:station:LUMCON:wisl1:1,2019-12-02T21:15:00Z,29.1144,-90.1840,2.307,23.77,11111222 
LUMCON,ioos:station:LUMCON:wisl1:1,2019-12-02T21:30:00Z,29.1144,-90.1840,2.319,23.77,11111222 
LUMCON,ioos:station:LUMCON:wisl1:1,2019-12-02T21:45:00Z,29.1144,-90.1840,2.327,23.78,11111222 
LUMCON,ioos:station:LUMCON:wisl1:1,2019-12-02T22:00:00Z,29.1144,-90.1840,2.338,23.75,11111222 
LUMCON,ioos:station:LUMCON:wisl1:1,2019-12-02T22:15:00Z,29.1144,-90.1840,2.348,23.75,11111222 
LUMCON,ioos:station:LUMCON:wisl1:1,2019-12-02T22:30:00Z,29.1144,-90.1840,2.353,23.74,11111222 
LUMCON,ioos:station:LUMCON:wisl1:1,2019-12-02T22:45:00Z,29.1144,-90.1840,2.353,23.73,11111222 
LUMCON,ioos:station:LUMCON:wisl1:1,2019-12-02T23:00:00Z,29.1144,-90.1840,2.364,23.77,11111222 
LUMCON,ioos:station:LUMCON:wisl1:1,2019-12-02T23:15:00Z,29.1144,-90.1840,2.366,24.35,11111222 
LUMCON,ioos:station:LUMCON:wisl1:1,2019-12-02T23:30:00Z,29.1144,-90.1840,2.353,24.81,11111222 
LUMCON,ioos:station:LUMCON:wisl1:1,2019-12-02T23:45:00Z,29.1144,-90.1840,2.335,25.45,11111222 
LUMCON,ioos:station:LUMCON:wisl1:1,2019-12-03T00:00:00Z,29.1144,-90.1840,2.333,26.39,11111222 
LUMCON,ioos:station:LUMCON:wisl1:1,2019-12-03T00:15:00Z,29.1144,-90.1840,2.326,26.47,11111222 
LUMCON,ioos:station:LUMCON:wisl1:1,2019-12-03T00:30:00Z,29.1144,-90.1840,2.309,26.67,11111222 
LUMCON,ioos:station:LUMCON:wisl1:1,2019-12-03T00:45:00Z,29.1144,-90.1840,2.31,26.75,11111222 
LUMCON,ioos:station:LUMCON:wisl1:1,2019-12-03T01:00:00Z,29.1144,-90.1840,2.302,27.18,11111222 
LUMCON,ioos:station:LUMCON:wisl1:1,2019-12-03T01:15:00Z,29.1144,-90.1840,2.299,27.3,11111222 
LUMCON,ioos:station:LUMCON:wisl1:1,2019-12-03T01:30:00Z,29.1144,-90.1840,2.304,27.55,11111222 
LUMCON,ioos:station:LUMCON:wisl1:1,2019-12-03T01:45:00Z,29.1144,-90.1840,2.306,27.66,11111222 
LUMCON,ioos:station:LUMCON:wisl1:1,2019-12-03T02:00:00Z,29.1144,-90.1840,2.301,27.84,11111222 
LUMCON,ioos:station:LUMCON:wisl1:1,2019-12-03T02:15:00Z,29.1144,-90.1840,2.302,28.0,11111222 
LUMCON,ioos:station:LUMCON:wisl1:1,2019-12-03T02:30:00Z,29.1144,-90.1840,2.299,28.04,11111222 
LUMCON,ioos:station:LUMCON:wisl1:1,2019-12-03T02:45:00Z,29.1144,-90.1840,2.306,28.16,11111222 
LUMCON,ioos:station:LUMCON:wisl1:1,2019-12-03T03:00:00Z,29.1144,-90.1840,2.306,28.42,11111222 
LUMCON,ioos:station:LUMCON:wisl1:1,2019-12-03T03:15:00Z,29.1144,-90.1840,2.309,28.35,11111222 
LUMCON,ioos:station:LUMCON:wisl1:1,2019-12-03T03:30:00Z,29.1144,-90.1840,2.316,28.58,11111222 
LUMCON,ioos:station:LUMCON:wisl1:1,2019-12-03T03:45:00Z,29.1144,-90.1840,2.317,28.59,11111222 
LUMCON,ioos:station:LUMCON:wisl1:1,2019-12-03T04:00:00Z,29.1144,-90.1840,2.319,28.65,11111222 
LUMCON,ioos:station:LUMCON:wisl1:1,2019-12-03T04:15:00Z,29.1144,-90.1840,2.322,28.68,11111222 
LUMCON,ioos:station:LUMCON:wisl1:1,2019-12-03T04:30:00Z,29.1144,-90.1840,2.329,28.73,11111222 
LUMCON,ioos:station:LUMCON:wisl1:1,2019-12-03T04:45:00Z,29.1144,-90.1840,2.328,28.81,11111222 
LUMCON,ioos:station:LUMCON:wisl1:1,2019-12-03T05:00:00Z,29.1144,-90.1840,2.33,28.8,11111222 
LUMCON,ioos:station:LUMCON:wisl1:1,2019-12-03T05:15:00Z,29.1144,-90.1840,2.331,28.85,11111222 
LUMCON,ioos:station:LUMCON:wisl1:1,2019-12-03T05:30:00Z,29.1144,-90.1840,2.328,28.88,11111222 
LUMCON,ioos:station:LUMCON:wisl1:1,2019-12-03T05:45:00Z,29.1144,-90.1840,2.327,28.9,11111222 
LUMCON,ioos:station:LUMCON:wisl1:1,2019-12-03T06:00:00Z,29.1144,-90.1840,2.33,28.85,11111222 
LUMCON,ioos:station:LUMCON:wisl1:1,2019-12-03T06:15:00Z,29.1144,-90.1840,2.332,28.97,11111222 
LUMCON,ioos:station:LUMCON:wisl1:1,2019-12-03T06:30:00Z,29.1144,-90.1840,2.326,28.71,11111222 
LUMCON,ioos:station:LUMCON:wisl1:1,2019-12-03T06:45:00Z,29.1144,-90.1840,2.327,28.72,11111222 
LUMCON,ioos:station:LUMCON:wisl1:1,2019-12-03T07:00:00Z,29.1144,-90.1840,2.333,28.75,11111222 
LUMCON,ioos:station:LUMCON:wisl1:1,2019-12-03T07:15:00Z,29.1144,-90.1840,2.33,28.69,11111222 
LUMCON,ioos:station:LUMCON:wisl1:1,2019-12-03T07:30:00Z,29.1144,-90.1840,2.328,28.7,11111222 
LUMCON,ioos:station:LUMCON:wisl1:1,2019-12-03T07:45:00Z,29.1144,-90.1840,2.319,28.72,11111222 
LUMCON,ioos:station:LUMCON:wisl1:1,2019-12-03T08:00:00Z,29.1144,-90.1840,2.312,29.0,11111222 
LUMCON,ioos:station:LUMCON:wisl1:1,2019-12-03T08:15:00Z,29.1144,-90.1840,2.309,29.0,11111222 
LUMCON,ioos:station:LUMCON:wisl1:1,2019-12-03T08:30:00Z,29.1144,-90.1840,2.295,29.04,11111222 
LUMCON,ioos:station:LUMCON:wisl1:1,2019-12-03T08:45:00Z,29.1144,-90.1840,2.298,29.01,11111222 
LUMCON,ioos:station:LUMCON:wisl1:1,2019-12-03T09:00:00Z,29.1144,-90.1840,2.304,29.0,11111222 
LUMCON,ioos:station:LUMCON:wisl1:1,2019-12-03T09:15:00Z,29.1144,-90.1840,2.292,28.9,11111222 
LUMCON,ioos:station:LUMCON:wisl1:1,2019-12-03T09:30:00Z,29.1144,-90.1840,2.295,28.92,11111222 
LUMCON,ioos:station:LUMCON:wisl1:1,2019-12-03T09:45:00Z,29.1144,-90.1840,2.309,28.54,11111222 
LUMCON,ioos:station:LUMCON:wisl1:1,2019-12-03T10:00:00Z,29.1144,-90.1840,2.309,28.7,11111222 
LUMCON,ioos:station:LUMCON:wisl1:1,2019-12-03T10:15:00Z,29.1144,-90.1840,2.292,28.69,11111222 
LUMCON,ioos:station:LUMCON:wisl1:1,2019-12-03T10:30:00Z,29.1144,-90.1840,2.302,28.37,11111222 
LUMCON,ioos:station:LUMCON:wisl1:1,2019-12-03T10:45:00Z,29.1144,-90.1840,2.317,28.3,11111222 
LUMCON,ioos:station:LUMCON:wisl1:1,2019-12-03T11:00:00Z,29.1144,-90.1840,2.329,28.03,11111222 
LUMCON,ioos:station:LUMCON:wisl1:1,2019-12-03T11:15:00Z,29.1144,-90.1840,2.327,27.91,11111222 
LUMCON,ioos:station:LUMCON:wisl1:1,2019-12-03T11:30:00Z,29.1144,-90.1840,2.336,27.79,11111222 
LUMCON,ioos:station:LUMCON:wisl1:1,2019-12-03T11:45:00Z,29.1144,-90.1840,2.337,27.42,11111222 
LUMCON,ioos:station:LUMCON:wisl1:1,2019-12-03T12:00:00Z,29.1144,-90.1840,2.339,27.3,11111222 
LUMCON,ioos:station:LUMCON:wisl1:1,2019-12-03T12:15:00Z,29.1144,-90.1840,2.338,27.12,11111222 
LUMCON,ioos:station:LUMCON:wisl1:1,2019-12-03T12:30:00Z,29.1144,-90.1840,2.337,27.16,11111222 
LUMCON,ioos:station:LUMCON:wisl1:1,2019-12-03T12:45:00Z,29.1144,-90.1840,2.34,26.86,11111222 
LUMCON,ioos:station:LUMCON:wisl1:1,2019-12-03T13:00:00Z,29.1144,-90.1840,2.351,26.57,11111222 
LUMCON,ioos:station:LUMCON:wisl1:1,2019-12-03T13:15:00Z,29.1144,-90.1840,2.348,26.49,11111222 
LUMCON,ioos:station:LUMCON:wisl1:1,2019-12-03T13:30:00Z,29.1144,-90.1840,2.349,26.32,11111222 
LUMCON,ioos:station:LUMCON:wisl1:1,2019-12-03T13:45:00Z,29.1144,-90.1840,2.345,26.38,11111222 
LUMCON,ioos:station:LUMCON:wisl1:1,2019-12-03T14:00:00Z,29.1144,-90.1840,2.347,26.24,11111222 
LUMCON,ioos:station:LUMCON:wisl1:1,2019-12-03T14:15:00Z,29.1144,-90.1840,2.336,26.13,11111222 
LUMCON,ioos:station:LUMCON:wisl1:1,2019-12-03T14:30:00Z,29.1144,-90.1840,2.344,25.98,11111222 
LUMCON,ioos:station:LUMCON:wisl1:1,2019-12-03T14:45:00Z,29.1144,-90.1840,2.336,26.05,11111222 